Weather History for CYYE - October, 2012

Change the Weather History Date:

Thursday, October 11, 2012

  Actual Average Record
Temperature  
Mean Temperature 24 °F -  
Max Temperature 27 °F 33 °F 62 °F (2014)
Min Temperature 21 °F 16 °F 21 °F (1997)
Degree Days  
Heating Degree Days 41    
Moisture  
Dew Point 18 °F    
Average Humidity 80    
Maximum Humidity 93    
Minimum Humidity 62    
Precipitation  
Precipitation 0.04 in 0.04 in - ()
Sea Level Pressure  
Sea Level Pressure 30.17 in    
Wind  
Wind Speed 6 mph ()    
Max Wind Speed 13 mph    
Max Gust Speed 18 mph    
Visibility 7.5 miles    
Events Snow    
Averages and records for this station are not official NWS values.
T = Trace of Precipitation, MM = Missing Value Source: Averaged Metar Reports

Daily Weather History Graph

Daily Weather History Graph

Search for Another Location

Airport or City:

Trip Planner

Search our weather history database for the weather conditions in past years. The results will help you decide how hot, cold, wet, or windy it might be!

Date:

Astronomy

Oct. 11, 2012 Rise Set
Actual Time 7:39 AM PDT 6:13 PM PDT
Civil Twilight 6:58 AM PDT 6:53 PM PDT
Nautical Twilight 6:12 AM PDT 7:40 PM PDT
Astronomical Twilight 5:25 AM PDT 8:27 PM PDT
Moon 2:31 AM PDT (10/11) 4:35 PM PDT (10/11)
Length of Visible Light 11h 54m
Length of Day
10h 33m
Waning Crescent, 17% of the Moon is Illuminated
Oct 11
Waning Crescent
Oct 15
New
Oct 21
First Quarter
Oct 29
Full
Nov 6
Last Quarter

Hourly Weather History & Observations

Time (PDT) Temp. Windchill Dew Point Humidity Pressure Visibility Wind Dir Wind Speed Gust Speed Precip Events Conditions
12:00 AM 24.8 °F 15.3 °F 17.6 °F 74% 30.37 in 15.0 mi ESE 9.2 mph 17.3 mph N/A   Overcast
1:00 AM 24.8 °F 14.0 °F 17.6 °F 74% 30.35 in 15.0 mi East 11.5 mph 18.4 mph N/A   Overcast
2:00 AM 23.0 °F 12.4 °F 15.8 °F 74% 30.32 in 15.0 mi ESE 10.4 mph 18.4 mph N/A   Overcast
3:00 AM 23.0 °F 11.1 °F 14.0 °F 68% 30.29 in 15.0 mi East 12.7 mph - N/A   Overcast
4:00 AM 23.0 °F 13.1 °F 14.0 °F 68% 30.26 in 15.0 mi East 9.2 mph - N/A   Overcast
4:32 AM - - - N/A% - 15.0 mi East 6.9 mph - N/A   Unknown
5:00 AM 23 °F - 15 °F 62% 30.23 in 7 mi East 5.8 mph - - Snow Light Snow Showers
5:00 AM 23.0 °F 15.8 °F 15.8 °F 74% 30.23 in 8.0 mi East 5.8 mph - N/A Snow Light Snow Showers
6:00 AM 23.0 °F 15.8 °F 17.6 °F 80% 30.22 in 15.0 mi East 5.8 mph - N/A Snow Light Snow Showers
6:41 AM - - - N/A% - 4.0 mi East 4.6 mph - N/A   Unknown
7:00 AM 21.2 °F 14.9 °F 17.6 °F 86% 30.19 in 3.0 mi East 4.6 mph - N/A Snow Light Snow Showers
8:00 AM 21.2 °F 14.9 °F 17.6 °F 86% 30.18 in 10.0 mi NE 4.6 mph - N/A Snow Light Snow Showers
9:00 AM 23.0 °F 17.0 °F 19.4 °F 86% 30.18 in 8.0 mi NNE 4.6 mph - N/A Snow Light Snow Showers
10:00 AM 23.0 °F 17.0 °F 17.6 °F 80% 30.16 in 3.0 mi NNE 4.6 mph - N/A Snow Light Snow Showers
11:00 AM 23 °F - 18 °F 76% 30.17 in 3 mi North 3.5 mph - - Snow Light Snow Showers
11:00 AM 23.0 °F 18.4 °F 19.4 °F 86% 30.17 in 3.0 mi NNE 3.5 mph - N/A Snow Light Snow Showers
12:00 PM 23.0 °F 18.4 °F 17.6 °F 80% 30.15 in 3.0 mi NNE 3.5 mph - N/A Snow Light Snow Showers
1:00 PM 24.8 °F - 19.4 °F 80% 30.14 in 3.0 mi North 2.3 mph - N/A Snow Light Snow Showers
2:00 PM 24.8 °F 17.9 °F 17.6 °F 74% 30.12 in 3.0 mi NW 5.8 mph - N/A Snow Light Snow Showers
3:00 PM 24.8 °F 17.9 °F 19.4 °F 80% 30.11 in 3.0 mi NW 5.8 mph - N/A Snow Light Snow Showers
4:00 PM 24.8 °F 16.9 °F 19.4 °F 80% 30.11 in 3.0 mi NNW 6.9 mph - N/A Snow Light Snow Showers
5:00 PM 25 °F - 21 °F 77% 30.10 in 3 mi NW 4.6 mph - - Snow Light Snow Showers
5:00 PM 24.8 °F 19.1 °F 21.2 °F 86% 30.10 in 3.0 mi WNW 4.6 mph - N/A Snow Light Snow Showers
6:00 PM 24.8 °F 17.9 °F 21.2 °F 86% 30.09 in 3.0 mi WNW 5.8 mph - N/A Snow Light Snow Showers
7:00 PM 23.0 °F 17.0 °F 21.2 °F 93% 30.08 in 4.0 mi WNW 4.6 mph - N/A Snow Light Snow Showers
8:00 PM 23.0 °F 18.4 °F 19.4 °F 86% 30.07 in 5.0 mi West 3.5 mph - N/A Snow Light Snow Showers
9:00 PM 23.0 °F - 21.2 °F 93% 30.06 in 10.0 mi Calm Calm - N/A Snow Light Snow Showers
11:00 PM 23 °F - 20 °F 83% 30.04 in 10 mi NNW 3.5 mph - - Snow Light Snow Showers
11:00 PM 23.0 °F - 19.4 °F 86% 30.04 in 10.0 mi NNW 2.3 mph - N/A Snow Light Snow Showers